This is the latest recevied weather packets stored in our database for station/object JH4GLG-13. If no packets are shown the sender has not sent any weather packets the latest 10 day(s).
| Time | Temp. | Humidity | Pressure | Rain* | Wind** | Luminosity | Snow |
|---|---|---|---|---|---|---|---|
| 1778071300 | 17.22° C | 81% | 1017.6 hPa | 0 mm | - | - | - |
| 1778070401 | 17.78° C | 81% | 1017.5 hPa | 0 mm | - | - | - |
| 1778069500 | 17.78° C | 80% | 1017.5 hPa | 0 mm | - | - | - |
| 1778068601 | 18.33° C | 80% | 1017.2 hPa | 0 mm | - | - | - |
| 1778067700 | 18.33° C | 80% | 1017.4 hPa | 0 mm | - | - | - |
| 1778066801 | 18.89° C | 79% | 1017.2 hPa | 0 mm | - | - | - |
| 1778065900 | 18.89° C | 79% | 1017.3 hPa | 0 mm | - | - | - |
| 1778065001 | 18.89° C | 77% | 1017.1 hPa | 0 mm | - | - | - |
| 1778064100 | 18.89° C | 75% | 1017.1 hPa | 0 mm | - | - | - |
| 1778063201 | 18.89° C | 75% | 1017 hPa | 0 mm | - | - | - |
| 1778062299 | 19.44° C | 74% | 1016.9 hPa | 0 mm | - | - | - |
| 1778061400 | 19.44° C | 73% | 1017.1 hPa | 0 mm | - | - | - |
| 1778060499 | 20° C | 70% | 1017 hPa | 0 mm | - | - | - |
| 1778059632 | 20° C | 69% | 1017.1 hPa | 0 mm | - | - | - |
| 1778059600 | 20° C | 69% | 1017.1 hPa | 0 mm | - | - | - |
| 1778058698 | 21.11° C | 67% | 1017 hPa | 0 mm | - | - | - |
| 1778057835 | 21.11° C | 66% | 1017 hPa | 0 mm | - | - | - |
| 1778057799 | 21.11° C | 66% | 1017 hPa | 0 mm | - | - | - |
| 1778056898 | 21.11° C | 65% | 1017 hPa | 0 mm | - | - | - |
| 1778055999 | 21.67° C | 64% | 1017 hPa | 0 mm | - | - | - |
| 1778055099 | 21.67° C | 64% | 1017 hPa | 0 mm | - | - | - |
| 1778054234 | 22.78° C | 61% | 1017.1 hPa | 0 mm | - | - | - |
| 1778054199 | 22.78° C | 61% | 1017.1 hPa | 0 mm | - | - | - |
| 1778053298 | - | - | 639.3 hPa | 0 mm | - | - | - |
| 1778052399 | 22.22° C | 60% | 1017.1 hPa | 0 mm | - | - | - |
* Rain latest hour (hover to see other rain measurements)
** Current wind speed in m/s (hover to see current wind gust speed)